Satellite: CP6
Catalog number: 35004
Epoch time:      10013.48565814
Element set:    0185
Inclination:      040.4610 deg
RA of node:       058.7724 deg
Eccentricity:    0.0025833
Arg of perigee:   299.3964 deg
Mean anomaly:     060.4267 deg
Mean motion:   15.42337516 rev/day
Decay rate:      7.924e-05 rev/day^2
Epoch rev:           03679
Checksum:              306

Satellite: AEROCUB3
Catalog number: 35005
Epoch time:      10013.51418725
Element set:     189
Inclination:      040.4746 deg
RA of node:       059.2590 deg
Eccentricity:    0.0024941
Arg of perigee:   294.5198 deg
Mean anomaly:     065.3013 deg
Mean motion:   15.42460940 rev/day
Decay rate:     1.3892e-04 rev/day^2
Epoch rev:            3679
Checksum:              293

Satellite: DRAGNSAT
Catalog number: 35690
Epoch time:      10014.17516524
Element set:     187
Inclination:      051.6370 deg
RA of node:       288.5421 deg
Eccentricity:    0.0003123
Arg of perigee:   071.1819 deg
Mean anomaly:     288.9520 deg
Mean motion:   15.93838825 rev/day
Decay rate:     8.7599e-04 rev/day^2
Epoch rev:            2660
Checksum:              309

Satellite: POLLUX
Catalog number: 35693
Epoch time:      10014.84482118
Element set:     183
Inclination:      051.6378 deg
RA of node:       286.2968 deg
Eccentricity:    0.0000668
Arg of perigee:   073.9297 deg
Mean anomaly:     286.2000 deg
Mean motion:   15.91864510 rev/day
Decay rate:     6.9906e-04 rev/day^2
Epoch rev:            2666
Checksum:              323

Satellite: CASTOR
Catalog number: 35694
Epoch time:      10014.15332188
Element set:     158
Inclination:      051.6407 deg
RA of node:       293.0255 deg
Eccentricity:    0.0001979
Arg of perigee:   331.2402 deg
Mean anomaly:     028.8599 deg
Mean motion:   15.85401117 rev/day
Decay rate:     2.5610e-04 rev/day^2
Epoch rev:            2651
Checksum:              277

Satellite: METEOR-M
Catalog number: 35865
Epoch time:      10013.66840166
Element set:     101
Inclination:      098.7822 deg
RA of node:       068.4083 deg
Eccentricity:    0.0003263
Arg of perigee:   087.3159 deg
Mean anomaly:     272.8343 deg
Mean motion:   14.21828423 rev/day
Decay rate:       1.76e-06 rev/day^2
Epoch rev:            1676
Checksum:              291

Satellite: RS-38
Catalog number: 35869
Epoch time:      10014.71157963
Element set:     103
Inclination:      098.7808 deg
RA of node:       069.4634 deg
Eccentricity:    0.0005466
Arg of perigee:   088.8099 deg
Mean anomaly:     271.3651 deg
Mean motion:   14.21975384 rev/day
Decay rate:       1.76e-06 rev/day^2
Epoch rev:            1691
Checksum:              336

/EX



_______________________________________________
Via the Keps mailing list courtesy of AMSAT-NA
http://amsat.org/mailman/listinfo/keps

--- ViaMAIL!/WC v1.60d
 * Origin: Chowdanet (401-724-4410) telnet://chowdanet.com  (1:323/120)